Flag for Russia Weather past 2 weeks in Kemerovo, Russia

Now
27 °F

Mostly cloudy.


Feels Like: 17 °F
Forecast: 19 / 24 °F
Wind: 10 mph from Southwest

Location: Kemerovo

Current Time: Mar 2, 2015 at 7:16:18 PM

Latest Report: Mar 2, 2015 at 6:30 PM


Visibility: N/A

Pressure: 30.42 "Hg

Humidity: 74%

Dew point: 19 °F

Location of KemerovoLocation

Historic Weather in Kemerovo — Graph

°F

Kemerovo temperature yesterday

Maximum temperature yesterday: 27 °F (at 1:00 PM)
Minimum temperature yesterday: 21 °F (at 6:00 AM)
Average temperature yesterday: 24 °F

Past Weeks' High & Low Weather Summary

 TemperatureHumidityPressure
High41 °F (Mar 2, 3:30 AM)100% (Feb 16, 3:00 AM)30.69 "Hg (Feb 16, 3:00 AM)
Low-22 °F (Feb 20, 5:00 AM)39% (Feb 21, 7:00 PM)29.77 "Hg (Feb 18, 3:30 AM)
Average12 °F89%30.20 "Hg
* Reported Feb 15 6:00 PM — Mar 2 6:00 PM, Kemerovo, Weather by CustomWeather, © 2015

Note: Actual official high and low records may vary slightly from our data, if they occured in-between our weather recording intervals... More about our weather records

Advertising

Kemerovo weather history for previous 24 hours

 ConditionsComfort  
Time TempWeatherWind HumidityBarometerVisibility
6:00 PM
Mon, Mar 2
27 °FMostly cloudy.8 mph74%30.42 "HgN/A
5:30 PM27 °FMostly cloudy.10 mph74%30.42 "HgN/A
5:00 PM27 °FMostly cloudy.10 mph74%30.42 "HgN/A
4:30 PM27 °FMostly cloudy.8 mph74%30.45 "HgN/A
4:00 PM27 °FMostly cloudy.13 mph74%30.45 "HgN/A
3:30 PM27 °FMostly cloudy.8 mph74%30.45 "HgN/A
3:00 PM27 °FMostly cloudy.8 mph74%30.45 "HgN/A
2:30 PM27 °FMostly cloudy.13 mph74%30.45 "HgN/A
2:00 PM27 °FMostly cloudy.10 mph74%30.45 "HgN/A
1:30 PM25 °FSunny.10 mph86%30.48 "Hg10 mi
1:00 PM25 °FSunny.10 mph86%30.48 "Hg10 mi
12:30 PM25 °FSunny.10 mph86%30.51 "Hg10 mi
12:00 PM25 °FSunny.13 mph86%30.51 "Hg10 mi
11:30 AM23 °FSunny.13 mph93%30.51 "Hg10 mi
11:00 AM23 °FSunny.8 mph93%30.51 "Hg10 mi
10:30 AM23 °FMostly cloudy.10 mph93%30.51 "HgN/A
10:00 AM23 °FMore clouds than sun.13 mph93%30.51 "HgN/A
9:30 AM23 °FMostly cloudy.10 mph93%30.51 "HgN/A
9:00 AM23 °FOvercast.8 mph93%30.51 "HgN/A
8:30 AM21 °FOvercast.8 mph100%30.51 "HgN/A
8:00 AM21 °FOvercast.8 mph100%30.51 "HgN/A
7:30 AM21 °FOvercast.8 mph100%30.51 "HgN/A
7:00 AM21 °FOvercast.10 mph100%30.51 "HgN/A
6:30 AM21 °FOvercast.13 mph93%30.51 "HgN/A
6:00 AM21 °FOvercast.10 mph93%30.54 "HgN/A
5:30 AM21 °FOvercast.10 mph93%30.54 "HgN/A
5:00 AM21 °FOvercast.13 mph93%30.54 "HgN/A
4:30 AM19 °FMostly cloudy.13 mph100%30.54 "HgN/A
4:00 AM19 °FMostly cloudy.8 mph100%30.54 "HgN/A
3:30 AM41 °FMostly cloudy.6 mph45%30.57 "HgN/A
2:30 AM23 °FClear.8 mph93%30.57 "Hg10 mi
2:00 AM23 °FClear.8 mph93%30.57 "Hg10 mi
1:30 AM23 °FClear.8 mph93%30.57 "Hg10 mi
1:00 AM23 °FMostly cloudy.8 mph93%30.57 "HgN/A
12:30 AM23 °FMostly cloudy.8 mph93%30.57 "HgN/A
12:00 AM23 °FMostly cloudy.8 mph93%30.60 "HgN/A
11:30 PM
Sun, Mar 1
23 °FSnow flurries. Mostly cloudy.8 mph93%30.60 "HgN/A
11:00 PM23 °FSnow flurries. Mostly cloudy.8 mph93%30.60 "HgN/A
10:30 PM23 °FSnow flurries. Overcast.8 mph93%30.60 "HgN/A
10:00 PM23 °FOvercast.6 mph93%30.60 "HgN/A
9:30 PM25 °FOvercast.6 mph93%30.60 "HgN/A
9:00 PM25 °FOvercast.6 mph86%30.60 "HgN/A
8:30 PM23 °FPassing clouds.6 mph86%30.60 "HgN/A
8:00 PM23 °FPassing clouds.6 mph86%30.60 "HgN/A
7:30 PM23 °FPartly sunny.6 mph86%30.60 "HgN/A
7:00 PM23 °FPartly sunny.6 mph86%30.60 "HgN/A
Weather by CustomWeather, © 2015

See weather overviewHow to use our weather pages